Location: Ch�risy
(50.2331°N, 2.9131°E)
Time: 22:28:45
(UTC+00:00)

CSL-04 Debris - Pass Details

Date: 17 January 2021
Orbit: 827 x 847 km, 98.9° (Epoch: 01 March)

Event Time Altitude Azimuth Distance (km) Brightness Sun altitude
Rises 18:27:59 0° 157° (SSE) 3,364 7.2 -20.3°
Reaches altitude 10° 18:30:20 10° 155° (SSE) 2,432 6.4 -20.7°
Maximum altitude 18:35:42 75° 72° (ENE) 862 4.0 -21.5°
Drops below altitude 10° 18:41:06 10° 347° (NNW) 2,444 6.7 -22.4°
Sets 18:43:28 0° 346° (NNW) 3,382 7.4 -22.7°
